Starlink 37290

operational
NORAD ID: 68547 Int'l Des: 2026-070 Owner: SPXS Country: US Constellation: starlink
LEOCIRCULAR

Starlink 37290について

説明を読み込み中...

リアルタイム位置

3D地球を読み込み中...

次回通過

高度履歴

Altitude vs Time

uPlot chart will show altitude changes over time

軌道要素

1 68547C 26070E 26093.83173611 .00375910 00000+0 46219-3 0 939
2 68547 53.1623 259.9532 0008792 282.1700 256.1958 16.06922863 13
Epoch: Apr 3, 2026 • Age: 30 hours

現在のステータス

高度 256.7 km
速度 7.75 km/s
衛星直下点 0.35°N, 148.62°E
打ち上げ日 Apr 2, 2026
運用期間 1 days
タイプ internet

技術仕様

分類 Payload
質量 575.00 kg
乾燥質量 530.00 kg
総質量 575.00 kg
長さ 0.30 m
直径 4.10 m
スパン 29.00 m
形状 Box + pan
製造者 SPXS
バスタイプ Starlink V2MO
フェーズステータス In Orbit
所有者/国 SPXS/US

大規模コンステレーション

Loading constellations...